QPF
0.07 0.05 0.05 0.06 0.06 0.06 0.05 0.04 0.04 0.03 0.02 0.01 0.02 0.03 0.02 0.02 0.01 0.00 0.01 0.01 0.02 0.02 0.02 0.02 0.01 0.03 0.03 0.04 0.07 0.08 0.09 0.08 0.06 0.03 0.03 0.03 0.04 0.04 0.05 0.04 0.04 0.03 0.04
0.11 0.09 0.08 0.08 0.07 0.07 0.04 0.04 0.05 0.05 0.04 0.03 0.02 0.03 0.02 0.02 0.01 0.01 0.01 0.01 0.01 0.02 0.01 0.02 0.02 0.03 0.05 0.06 0.07 0.06 0.04 0.04 0.05 0.04 0.02 0.02 0.03 0.04 0.04 0.05 0.04 0.03 0.04
0.12 0.13 0.12 0.10 0.08 0.07 0.05 0.05 0.05 0.05 0.06 0.05 0.04 0.03 0.01 0.01 0.02 0.01 0.01 0.01 0.01 0.01 0.01 0.02 0.02 0.04 0.06 0.05 0.04 0.04 0.04 0.04 0.05 0.04 0.03 0.02 0.03 0.02 0.02 0.03 0.02 0.02 0.03
0.14 0.14 0.13 0.11 0.09 0.08 0.06 0.06 0.07 0.08 0.07 0.06 0.05 0.04 0.03 0.02 0.02 0.02 0.01 0.01 0.02 0.02 0.01 0.02 0.02 0.03 0.03 0.02 0.03 0.02 0.04 0.05 0.05 0.04 0.03 0.03 0.03 0.03 0.04 0.04 0.02 0.02 0.02
0.10 0.10 0.11 0.11 0.11 0.10 0.08 0.08 0.09 0.10 0.09 0.06 0.05 0.04 0.03 0.03 0.03 0.02 0.02 0.02 0.02 0.03 0.02 0.02 0.02 0.01 0.02 0.02 0.02 0.02 0.03 0.04 0.05 0.04 0.03 0.03 0.03 0.03 0.04 0.04 0.04 0.05 0.05
0.05 0.05 0.05 0.07 0.11 0.12 0.12 0.10 0.09 0.10 0.08 0.05 0.04 0.03 0.03 0.03 0.03 0.03 0.03 0.03 0.03 0.03 0.02 0.02 0.02 0.01 0.02 0.02 0.03 0.03 0.04 0.04 0.04 0.04 0.04 0.04 0.03 0.03 0.04 0.04 0.05 0.05 0.05
0.02 0.03 0.03 0.04 0.06 0.08 0.12 0.17 0.15 0.11 0.07 0.05 0.04 0.03 0.03 0.03 0.04 0.04 0.05 0.04 0.03 0.03 0.03 0.04 0.03 0.02 0.02 0.02 0.02 0.02 0.03 0.04 0.04 0.05 0.05 0.05 0.04 0.05 0.06 0.05 0.04 0.04 0.03
0.03 0.02 0.03 0.05 0.07 0.08 0.13 0.15 0.14 0.11 0.08 0.06 0.04 0.04 0.04 0.04 0.05 0.05 0.06 0.06 0.04 0.03 0.03 0.04 0.04 0.03 0.02 0.02 0.01 0.01 0.02 0.03 0.04 0.05 0.06 0.07 0.07 0.07 0.06 0.04 0.04 0.03 0.03
0.05 0.08 0.10 0.12 0.12 0.11 0.08 0.06 0.07 0.08 0.08 0.07 0.04 0.03 0.04 0.03 0.05 0.05 0.06 0.06 0.05 0.04 0.04 0.05 0.05 0.04 0.03 0.02 0.02 0.02 0.02 0.02 0.02 0.03 0.03 0.05 0.05 0.05 0.04 0.03 0.03 0.03 0.03
0.07 0.09 0.14 0.16 0.10 0.08 0.06 0.03 0.04 0.06 0.07 0.09 0.08 0.07 0.06 0.05 0.05 0.05 0.05 0.04 0.04 0.03 0.04 0.04 0.05 0.04 0.03 0.02 0.02 0.01 0.01 0.01 0.01 0.01 0.01 0.02 0.02 0.03 0.05 0.04 0.04 0.04 0.03
0.07 0.07 0.09 0.10 0.08 0.07 0.07 0.08 0.07 0.05 0.05 0.05 0.04 0.06 0.06 0.07 0.07 0.07 0.06 0.05 0.03 0.02 0.02 0.02 0.03 0.03 0.03 0.02 0.02 0.01 0.01 0.01 0.01 0.02 0.02 0.02 0.02 0.02 0.03 0.04 0.04 0.04 0.04
0.07 0.06 0.04 0.05 0.05 0.05 0.04 0.04 0.04 0.04 0.03 0.02 0.02 0.02 0.03 0.05 0.06 0.06 0.06 0.06 0.06 0.05 0.02 0.02 0.02 0.03 0.03 0.02 0.02 0.02 0.02 0.03 0.02 0.02 0.02 0.01 0.01 0.01 0.02 0.03 0.03 0.04 0.05
0.04 0.04 0.03 0.02 0.02 0.03 0.03 0.02 0.02 0.02 0.02 0.02 0.02 0.01 0.01 0.02 0.03 0.04 0.04 0.05 0.07 0.07 0.06 0.04 0.03 0.03 0.03 0.03 0.03 0.04 0.04 0.04 0.03 0.03 0.02 0.02 0.02 0.01 0.02 0.02 0.02 0.02 0.04
0.04 0.04 0.04 0.03 0.02 0.01 0.02 0.02 0.02 0.02 0.02 0.02 0.02 0.02 0.01 0.01 0.02 0.02 0.03 0.04 0.05 0.05 0.06 0.07 0.07 0.05 0.05 0.05 0.04 0.04 0.05 0.06 0.04 0.04 0.03 0.02 0.02 0.02 0.02 0.02 0.02 0.03 0.03
0.04 0.04 0.04 0.04 0.03 0.02 0.02 0.03 0.03 0.03 0.03 0.03 0.03 0.03 0.02 0.01 0.02 0.03 0.04 0.04 0.04 0.04 0.04 0.05 0.06 0.06 0.05 0.06 0.04 0.03 0.03 0.04 0.03 0.03 0.03 0.02 0.02 0.01 0.02 0.03 0.03 0.04 0.03
0.02 0.02 0.03 0.03 0.04 0.04 0.04 0.03 0.04 0.05 0.06 0.06 0.06 0.06 0.04 0.03 0.03 0.04 0.05 0.06 0.06 0.05 0.04 0.03 0.03 0.03 0.03 0.03 0.03 0.03 0.03 0.02 0.01 0.02 0.02 0.02 0.02 0.01 0.01 0.01 0.02 0.02 0.02
0.01 0.02 0.02 0.02 0.03 0.04 0.04 0.03 0.03 0.04 0.05 0.07 0.07 0.08 0.07 0.05 0.04 0.04 0.04 0.05 0.06 0.05 0.03 0.02 0.02 0.02 0.01 0.02 0.02 0.02 0.02 0.02 0.02 0.02 0.01 0.01 0.01 0.01 0.01 0.01 0.01 0.01 0.01
0.01 0.01 0.01 0.01 0.02 0.04 0.04 0.04 0.03 0.03 0.03 0.04 0.05 0.06 0.07 0.07 0.06 0.05 0.05 0.06 0.05 0.04 0.03 0.02 0.02 0.02 0.02 0.02 0.03 0.03 0.03 0.03 0.03 0.03 0.02 0.02 0.01 0.01 0.02 0.01 0.01 0.01 0.01
0.02 0.02 0.02 0.02 0.02 0.02 0.03 0.04 0.04 0.04 0.03 0.04 0.04 0.05 0.06 0.05 0.04 0.04 0.04 0.03 0.02 0.03 0.02 0.02 0.02 0.01 0.01 0.01 0.02 0.03 0.03 0.04 0.04 0.03 0.04 0.03 0.03 0.03 0.02 0.01 0.02 0.02 0.01
0.02 0.02 0.02 0.02 0.02 0.02 0.03 0.04 0.05 0.05 0.05 0.05 0.05 0.06 0.06 0.05 0.04 0.04 0.04 0.04 0.04 0.04 0.03 0.02 0.02 0.01 0.01 0.01 0.01 0.02 0.02 0.03 0.04 0.03 0.03 0.04 0.04 0.04 0.03 0.02 0.02 0.01 0.01
0.02 0.01 0.01 0.01 0.02 0.02 0.03 0.05 0.05 0.06 0.10 0.13 0.14 0.14 0.11 0.09 0.09 0.08 0.07 0.06 0.05 0.04 0.03 0.03 0.03 0.02 0.02 0.01 0.01 0.02 0.02 0.02 0.02 0.02 0.02 0.03 0.04 0.05 0.05 0.04 0.04 0.03 0.02
0.01 0.01 0.01 0.01 0.01 0.01 0.02 0.04 0.04 0.04 0.06 0.10 0.13 0.16 0.16 0.13 0.09 0.07 0.07 0.06 0.04 0.03 0.03 0.03 0.04 0.03 0.02 0.01 0.01 0.01 0.01 0.01 0.01 0.02 0.02 0.03 0.03 0.03 0.03 0.04 0.05 0.05 0.04
0.01 0.01 0.01 0.01 0.01 0.01 0.01 0.02 0.02 0.03 0.03 0.04 0.06 0.05 0.06 0.07 0.08 0.06 0.04 0.04 0.03 0.03 0.02 0.02 0.02 0.02 0.02 0.02 0.01 0.01 0.01 0.01 0.01 0.01 0.02 0.02 0.03 0.03 0.03 0.04 0.05 0.05 0.06
0.02 0.01 0.02 0.02 0.03 0.02 0.02 0.02 0.02 0.03 0.03 0.04 0.04 0.06 0.07 0.04 0.03 0.04 0.03 0.03 0.03 0.03 0.02 0.02 0.01 0.01 0.01 0.01 0.01 0.01 0.02 0.02 0.02 0.02 0.02 0.02 0.02 0.02 0.03 0.04 0.04 0.04 0.04
0.03 0.03 0.04 0.04 0.04 0.04 0.03 0.03 0.02 0.02 0.02 0.04 0.03 0.03 0.03 0.02 0.01 0.02 0.03 0.03 0.03 0.03 0.02 0.02 0.02 0.02 0.02 0.02 0.02 0.02 0.03 0.03 0.02 0.02 0.03 0.02 0.03 0.03 0.03 0.03 0.03 0.03 0.03
0.06 0.06 0.06 0.07 0.06 0.06 0.05 0.04 0.03 0.03 0.02 0.02 0.03 0.03 0.02 0.01 0.02 0.02 0.03 0.03 0.03 0.02 0.02 0.02 0.02 0.02 0.03 0.03 0.04 0.04 0.03 0.03 0.02 0.03 0.02 0.02 0.02 0.02 0.03 0.03 0.02 0.02 0.02
MSLP
1017.15 1016.98 1016.78 1016.55 1016.25 1015.89 1015.50 1015.09 1014.68 1014.29 1013.93 1013.60 1013.29 1012.96 1012.60 1012.17 1011.67 1011.11 1010.50 1009.87 1009.27 1008.73 1008.31 1008.03 1007.91 1007.95 1008.15 1008.50 1008.95 1009.48 1010.05 1010.63 1011.19 1011.70 1012.14 1012.52 1012.83 1013.09 1013.32 1013.53 1013.76 1014.01 1014.30
1017.12 1016.92 1016.68 1016.40 1016.07 1015.69 1015.26 1014.81 1014.36 1013.94 1013.55 1013.21 1012.89 1012.59 1012.28 1011.92 1011.52 1011.05 1010.52 1009.96 1009.39 1008.85 1008.39 1008.02 1007.79 1007.71 1007.79 1008.03 1008.41 1008.91 1009.48 1010.09 1010.70 1011.28 1011.80 1012.25 1012.63 1012.94 1013.20 1013.44 1013.69 1013.95 1014.25
1017.21 1016.98 1016.71 1016.40 1016.02 1015.58 1015.10 1014.59 1014.08 1013.60 1013.15 1012.77 1012.43 1012.13 1011.85 1011.56 1011.24 1010.86 1010.43 1009.95 1009.44 1008.91 1008.42 1008.00 1007.67 1007.49 1007.46 1007.60 1007.91 1008.35 1008.90 1009.53 1010.17 1010.81 1011.40 1011.92 1012.36 1012.73 1013.05 1013.34 1013.62 1013.92 1014.25
1017.40 1017.16 1016.87 1016.51 1016.08 1015.58 1015.03 1014.44 1013.85 1013.28 1012.77 1012.31 1011.93 1011.62 1011.35 1011.10 1010.84 1010.55 1010.21 1009.81 1009.35 1008.86 1008.36 1007.90 1007.52 1007.25 1007.13 1007.18 1007.41 1007.80 1008.32 1008.94 1009.61 1010.29 1010.93 1011.51 1012.01 1012.45 1012.83 1013.17 1013.50 1013.84 1014.20
1017.65 1017.41 1017.09 1016.70 1016.22 1015.65 1015.02 1014.34 1013.66 1013.00 1012.40 1011.87 1011.43 1011.08 1010.81 1010.57 1010.36 1010.13 1009.85 1009.51 1009.11 1008.65 1008.17 1007.69 1007.27 1006.94 1006.76 1006.75 1006.91 1007.25 1007.74 1008.35 1009.03 1009.72 1010.40 1011.03 1011.59 1012.08 1012.51 1012.90 1013.27 1013.65 1014.04
1017.90 1017.66 1017.33 1016.89 1016.35 1015.72 1015.01 1014.25 1013.48 1012.73 1012.04 1011.44 1010.94 1010.55 1010.25 1010.02 1009.82 1009.62 1009.39 1009.09 1008.73 1008.31 1007.84 1007.36 1006.92 1006.56 1006.34 1006.28 1006.40 1006.71 1007.17 1007.76 1008.44 1009.15 1009.85 1010.50 1011.09 1011.62 1012.08 1012.51 1012.91 1013.32 1013.73
1018.10 1017.85 1017.49 1017.01 1016.42 1015.72 1014.93 1014.10 1013.26 1012.44 1011.68 1011.01 1010.47 1010.03 1009.70 1009.46 1009.26 1009.07 1008.86 1008.59 1008.26 1007.85 1007.40 1006.93 1006.48 1006.12 1005.87 1005.79 1005.89 1006.17 1006.62 1007.21 1007.87 1008.58 1009.29 1009.96 1010.56 1011.10 1011.58 1012.02 1012.43 1012.84 1013.26
1018.20 1017.93 1017.53 1017.01 1016.36 1015.60 1014.76 1013.87 1012.97 1012.10 1011.29 1010.59 1010.00 1009.54 1009.18 1008.92 1008.72 1008.53 1008.32 1008.06 1007.74 1007.35 1006.91 1006.44 1006.00 1005.64 1005.39 1005.31 1005.40 1005.68 1006.12 1006.70 1007.36 1008.07 1008.77 1009.43 1010.03 1010.56 1011.04 1011.46 1011.86 1012.26 1012.66
1018.17 1017.86 1017.42 1016.85 1016.15 1015.34 1014.46 1013.53 1012.60 1011.70 1010.87 1010.15 1009.54 1009.06 1008.70 1008.43 1008.21 1008.02 1007.81 1007.56 1007.24 1006.85 1006.42 1005.96 1005.53 1005.17 1004.93 1004.85 1004.95 1005.23 1005.68 1006.25 1006.91 1007.61 1008.31 1008.96 1009.54 1010.05 1010.49 1010.89 1011.26 1011.62 1011.99
1018.01 1017.66 1017.17 1016.56 1015.82 1014.97 1014.06 1013.11 1012.16 1011.25 1010.42 1009.69 1009.08 1008.60 1008.24 1007.96 1007.74 1007.55 1007.34 1007.09 1006.77 1006.39 1005.97 1005.52 1005.10 1004.75 1004.52 1004.45 1004.55 1004.84 1005.28 1005.85 1006.51 1007.21 1007.89 1008.52 1009.09 1009.57 1009.98 1010.33 1010.66 1010.98 1011.30
1017.72 1017.33 1016.81 1016.16 1015.39 1014.52 1013.59 1012.63 1011.68 1010.77 1009.94 1009.21 1008.61 1008.13 1007.77 1007.49 1007.28 1007.09 1006.89 1006.65 1006.34 1005.98 1005.57 1005.13 1004.72 1004.38 1004.15 1004.08 1004.19 1004.47 1004.91 1005.48 1006.13 1006.82 1007.49 1008.11 1008.65 1009.10 1009.48 1009.79 1010.07 1010.34 1010.63
1017.33 1016.91 1016.36 1015.70 1014.92 1014.05 1013.12 1012.16 1011.20 1010.29 1009.45 1008.72 1008.11 1007.62 1007.26 1006.99 1006.78 1006.60 1006.42 1006.20 1005.92 1005.58 1005.19 1004.77 1004.37 1004.04 1003.81 1003.74 1003.83 1004.10 1004.53 1005.09 1005.73 1006.40 1007.06 1007.66 1008.18 1008.62 1008.97 1009.25 1009.49 1009.72 1009.97
1016.86 1016.43 1015.89 1015.23 1014.46 1013.61 1012.69 1011.72 1010.76 1009.83 1008.97 1008.21 1007.58 1007.07 1006.68 1006.40 1006.20 1006.04 1005.88 1005.70 1005.46 1005.15 1004.80 1004.41 1004.04 1003.71 1003.49 1003.40 1003.47 1003.71 1004.11 1004.64 1005.26 1005.91 1006.56 1007.15 1007.66 1008.08 1008.41 1008.67 1008.89 1009.09 1009.32
1016.35 1015.93 1015.42 1014.79 1014.06 1013.24 1012.33 1011.37 1010.40 1009.44 1008.53 1007.72 1007.03 1006.47 1006.04 1005.74 1005.53 1005.38 1005.26 1005.12 1004.93 1004.69 1004.39 1004.05 1003.70 1003.39 1003.16 1003.06 1003.10 1003.30 1003.66 1004.15 1004.73 1005.35 1005.97 1006.55 1007.05 1007.46 1007.78 1008.03 1008.24 1008.43 1008.65
1015.82 1015.44 1014.98 1014.42 1013.75 1012.97 1012.09 1011.14 1010.14 1009.14 1008.17 1007.28 1006.50 1005.87 1005.38 1005.03 1004.81 1004.67 1004.58 1004.49 1004.37 1004.20 1003.97 1003.69 1003.39 1003.10 1002.88 1002.75 1002.76 1002.92 1003.22 1003.65 1004.18 1004.76 1005.34 1005.89 1006.37 1006.77 1007.09 1007.34 1007.55 1007.74 1007.95
1015.30 1014.98 1014.60 1014.12 1013.53 1012.82 1011.98 1011.04 1010.03 1008.98 1007.93 1006.95 1006.08 1005.35 1004.79 1004.38 1004.13 1004.00 1003.94 1003.91 1003.86 1003.77 1003.63 1003.42 1003.17 1002.92 1002.71 1002.57 1002.53 1002.64 1002.87 1003.24 1003.70 1004.21 1004.75 1005.26 1005.72 1006.10 1006.40 1006.64 1006.84 1007.03 1007.24
1014.82 1014.58 1014.28 1013.90 1013.41 1012.78 1012.01 1011.10 1010.08 1008.99 1007.89 1006.82 1005.86 1005.04 1004.39 1003.93 1003.65 1003.51 1003.48 1003.50 1003.53 1003.53 1003.46 1003.34 1003.15 1002.94 1002.74 1002.59 1002.52 1002.56 1002.73 1003.01 1003.39 1003.84 1004.30 1004.76 1005.16 1005.51 1005.78 1006.00 1006.18 1006.35 1006.55
1014.40 1014.24 1014.04 1013.77 1013.39 1012.86 1012.17 1011.31 1010.31 1009.22 1008.08 1006.96 1005.93 1005.04 1004.33 1003.82 1003.51 1003.36 1003.35 1003.42 1003.52 1003.59 1003.60 1003.55 1003.43 1003.25 1003.07 1002.90 1002.80 1002.79 1002.88 1003.08 1003.37 1003.72 1004.10 1004.48 1004.82 1005.10 1005.33 1005.49 1005.63 1005.77 1005.94
1014.06 1013.97 1013.88 1013.72 1013.45 1013.03 1012.43 1011.66 1010.73 1009.67 1008.54 1007.42 1006.36 1005.44 1004.70 1004.16 1003.83 1003.69 1003.69 1003.79 1003.93 1004.06 1004.13 1004.14 1004.06 1003.92 1003.74 1003.57 1003.43 1003.36 1003.37 1003.48 1003.68 1003.93 1004.21 1004.49 1004.75 1004.95 1005.10 1005.20 1005.27 1005.35 1005.46
1013.82 1013.79 1013.77 1013.71 1013.56 1013.26 1012.78 1012.12 1011.29 1010.32 1009.27 1008.19 1007.17 1006.27 1005.53 1005.00 1004.67 1004.53 1004.54 1004.66 1004.82 1004.97 1005.08 1005.11 1005.05 1004.93 1004.75 1004.55 1004.38 1004.25 1004.20 1004.22 1004.32 1004.47 1004.64 1004.82 1004.97 1005.08 1005.13 1005.15 1005.14 1005.13 1005.17
1013.66 1013.67 1013.72 1013.74 1013.69 1013.50 1013.16 1012.64 1011.95 1011.11 1010.18 1009.22 1008.29 1007.47 1006.79 1006.29 1005.98 1005.84 1005.85 1005.97 1006.13 1006.28 1006.38 1006.41 1006.35 1006.21 1006.01 1005.79 1005.57 1005.39 1005.27 1005.21 1005.22 1005.27 1005.35 1005.42 1005.47 1005.48 1005.43 1005.35 1005.25 1005.15 1005.10
1013.57 1013.60 1013.68 1013.76 1013.79 1013.72 1013.51 1013.14 1012.62 1011.96 1011.20 1010.39 1009.61 1008.90 1008.32 1007.88 1007.61 1007.49 1007.49 1007.59 1007.71 1007.83 1007.90 1007.89 1007.80 1007.63 1007.41 1007.15 1006.89 1006.66 1006.48 1006.36 1006.29 1006.25 1006.24 1006.22 1006.18 1006.09 1005.96 1005.79 1005.59 1005.41 1005.28
1013.52 1013.55 1013.63 1013.74 1013.84 1013.85 1013.77 1013.55 1013.20 1012.73 1012.17 1011.56 1010.95 1010.39 1009.93 1009.58 1009.36 1009.26 1009.25 1009.31 1009.39 1009.45 1009.45 1009.39 1009.25 1009.04 1008.77 1008.48 1008.19 1007.92 1007.69 1007.52 1007.39 1007.30 1007.22 1007.14 1007.02 1006.86 1006.66 1006.42 1006.16 1005.91 1005.71
1013.48 1013.48 1013.55 1013.67 1013.79 1013.88 1013.89 1013.81 1013.62 1013.33 1012.97 1012.56 1012.14 1011.74 1011.41 1011.16 1010.99 1010.91 1010.89 1010.91 1010.93 1010.93 1010.87 1010.74 1010.54 1010.29 1009.98 1009.66 1009.35 1009.06 1008.81 1008.61 1008.45 1008.33 1008.21 1008.08 1007.93 1007.73 1007.49 1007.21 1006.91 1006.62 1006.38
1013.44 1013.40 1013.44 1013.54 1013.67 1013.79 1013.87 1013.89 1013.84 1013.71 1013.52 1013.29 1013.04 1012.80 1012.59 1012.43 1012.33 1012.27 1012.24 1012.22 1012.19 1012.13 1012.01 1011.83 1011.59 1011.29 1010.97 1010.64 1010.32 1010.03 1009.78 1009.58 1009.42 1009.29 1009.16 1009.02 1008.85 1008.64 1008.40 1008.11 1007.81 1007.52 1007.27
1013.38 1013.30 1013.30 1013.37 1013.48 1013.61 1013.72 1013.81 1013.85 1013.85 1013.79 1013.70 1013.59 1013.49 1013.39 1013.31 1013.26 1013.22 1013.19 1013.15 1013.09 1012.98 1012.82 1012.61 1012.35 1012.05 1011.73 1011.41 1011.11 1010.85 1010.62 1010.44 1010.30 1010.17 1010.06 1009.93 1009.78 1009.59 1009.36 1009.11 1008.84 1008.57 1008.35
Thickness
5738 5737 5736 5734 5733 5731 5729 5729 5729 5728 5728 5726 5725 5724 5723 5722 5721 5719 5718 5717 5715 5714 5713 5712 5710 5710 5708 5707 5705 5704 5702 5699 5694 5694 5696 5697 5696 5696 5695 5694 5693 5692 5691
5736 5734 5732 5730 5728 5726 5725 5725 5725 5724 5724 5723 5722 5720 5719 5718 5716 5715 5714 5713 5711 5709 5709 5708 5707 5706 5704 5703 5702 5700 5699 5698 5694 5691 5691 5691 5691 5691 5691 5689 5688 5688 5687
5731 5729 5726 5725 5723 5722 5721 5721 5720 5719 5719 5719 5717 5715 5715 5714 5713 5711 5710 5709 5707 5706 5705 5704 5703 5702 5699 5698 5698 5697 5696 5696 5693 5690 5687 5687 5686 5686 5684 5684 5683 5682 5683
5726 5723 5721 5720 5719 5718 5718 5717 5715 5713 5712 5712 5712 5712 5711 5710 5709 5708 5707 5705 5704 5703 5702 5701 5700 5699 5697 5695 5694 5692 5691 5690 5688 5686 5683 5681 5680 5680 5678 5676 5675 5676 5676
5718 5716 5715 5715 5714 5713 5712 5712 5710 5708 5707 5706 5707 5706 5706 5705 5705 5704 5702 5701 5699 5697 5697 5696 5696 5696 5695 5693 5691 5689 5687 5684 5682 5679 5677 5675 5673 5672 5670 5670 5669 5669 5669
5712 5710 5709 5708 5707 5707 5706 5704 5703 5702 5700 5699 5699 5700 5700 5700 5700 5699 5698 5696 5695 5693 5691 5690 5690 5690 5689 5689 5688 5687 5685 5681 5677 5674 5672 5670 5668 5667 5666 5665 5662 5660 5659
5705 5704 5702 5701 5700 5699 5700 5697 5695 5695 5694 5692 5692 5692 5693 5693 5694 5693 5692 5690 5689 5688 5686 5685 5685 5684 5683 5682 5681 5681 5679 5678 5676 5672 5668 5666 5665 5664 5662 5659 5657 5655 5654
5697 5697 5696 5695 5693 5693 5691 5689 5689 5688 5687 5687 5686 5686 5686 5687 5687 5686 5686 5684 5682 5682 5681 5680 5678 5677 5677 5676 5674 5672 5671 5671 5670 5668 5666 5664 5663 5662 5659 5656 5653 5651 5650
5690 5689 5689 5688 5686 5685 5684 5683 5683 5682 5680 5679 5679 5679 5679 5679 5679 5679 5679 5677 5675 5675 5675 5674 5673 5672 5671 5670 5667 5665 5663 5662 5663 5662 5661 5659 5658 5656 5654 5650 5646 5643 5641
5683 5683 5683 5682 5680 5678 5677 5677 5677 5675 5674 5673 5672 5671 5671 5671 5672 5672 5672 5670 5668 5667 5667 5667 5667 5666 5665 5663 5661 5658 5655 5654 5654 5653 5652 5652 5651 5649 5647 5644 5641 5636 5634
5678 5677 5676 5675 5674 5672 5671 5671 5670 5669 5667 5666 5664 5664 5664 5665 5666 5665 5664 5662 5662 5660 5659 5659 5660 5659 5658 5657 5655 5653 5651 5649 5647 5645 5643 5642 5642 5641 5639 5638 5635 5632 5629
5670 5669 5668 5667 5667 5667 5664 5663 5663 5662 5659 5657 5656 5656 5657 5658 5658 5658 5657 5657 5657 5654 5653 5654 5653 5653 5651 5650 5649 5647 5645 5642 5639 5637 5635 5634 5633 5632 5632 5631 5630 5628 5626
5662 5660 5660 5660 5659 5658 5656 5655 5654 5653 5651 5650 5649 5648 5649 5650 5651 5651 5650 5650 5650 5648 5648 5648 5647 5646 5645 5644 5642 5640 5638 5634 5631 5628 5626 5626 5626 5626 5625 5625 5623 5621 5620
5653 5651 5651 5650 5650 5650 5649 5648 5647 5646 5645 5644 5643 5642 5642 5642 5642 5642 5642 5641 5641 5641 5640 5640 5639 5638 5637 5636 5634 5631 5629 5627 5625 5622 5620 5619 5619 5618 5617 5616 5614 5612 5609
5646 5644 5643 5642 5642 5641 5640 5640 5640 5641 5640 5639 5638 5637 5636 5635 5637 5637 5635 5634 5633 5633 5631 5630 5628 5627 5626 5625 5624 5622 5621 5620 5617 5615 5613 5611 5610 5609 5608 5607 5605 5603 5600
5639 5638 5637 5635 5635 5634 5633 5632 5633 5633 5634 5634 5633 5632 5632 5632 5631 5629 5628 5628 5627 5624 5622 5621 5620 5618 5618 5617 5615 5614 5613 5612 5611 5608 5606 5604 5602 5601 5600 5598 5597 5594 5592
5634 5632 5630 5629 5628 5627 5626 5624 5623 5623 5624 5625 5625 5625 5625 5624 5623 5622 5620 5618 5617 5616 5614 5613 5612 5611 5610 5610 5609 5608 5607 5606 5604 5601 5599 5597 5595 5594 5592 5590 5588 5586 5584
5628 5627 5626 5624 5622 5621 5620 5618 5616 5615 5613 5613 5614 5615 5616 5616 5615 5613 5611 5608 5606 5605 5605 5605 5605 5604 5603 5603 5602 5601 5600 5598 5596 5593 5591 5589 5588 5586 5585 5583 5581 5579 5577
5622 5620 5619 5618 5617 5615 5613 5612 5610 5608 5607 5606 5605 5606 5606 5606 5604 5603 5601 5600 5600 5599 5599 5598 5598 5598 5597 5596 5595 5594 5592 5591 5589 5586 5584 5582 5580 5578 5576 5575 5573 5572 5570
5615 5615 5614 5611 5610 5608 5607 5605 5603 5601 5600 5599 5598 5597 5596 5595 5593 5592 5592 5592 5592 5592 5592 5591 5591 5591 5590 5589 5588 5586 5585 5583 5581 5579 5577 5575 5574 5572 5570 5568 5566 5564 5563
5608 5608 5607 5604 5602 5601 5600 5598 5597 5595 5594 5593 5592 5591 5590 5588 5587 5586 5584 5584 5584 5584 5584 5584 5584 5584 5583 5582 5581 5579 5578 5576 5574 5572 5570 5568 5567 5565 5563 5561 5559 5558 5556
5601 5600 5599 5597 5595 5594 5593 5592 5591 5589 5588 5587 5586 5585 5583 5582 5581 5580 5579 5579 5579 5578 5578 5578 5577 5577 5577 5576 5575 5573 5571 5569 5567 5565 5563 5561 5559 5558 5556 5554 5552 5551 5549
5595 5593 5592 5590 5589 5588 5587 5586 5584 5583 5582 5581 5580 5579 5577 5576 5575 5574 5573 5573 5572 5572 5571 5570 5570 5570 5570 5569 5568 5567 5566 5564 5562 5559 5557 5554 5552 5551 5550 5548 5546 5544 5542
5588 5587 5585 5583 5582 5580 5579 5578 5578 5577 5577 5576 5575 5573 5572 5570 5569 5568 5567 5566 5565 5565 5564 5564 5563 5563 5563 5562 5562 5560 5560 5558 5556 5554 5552 5549 5547 5545 5543 5541 5540 5538 5536
5581 5580 5578 5576 5575 5573 5572 5571 5571 5571 5570 5570 5569 5568 5566 5565 5563 5562 5560 5559 5558 5557 5557 5557 5556 5556 5555 5554 5553 5553 5552 5551 5549 5547 5545 5543 5540 5539 5537 5535 5533 5531 5529
5575 5574 5572 5570 5568 5567 5565 5564 5564 5564 5563 5563 5563 5562 5561 5559 5557 5556 5554 5553 5552 5551 5550 5550 5549 5549 5548 5546 5545 5545 5544 5542 5541 5540 5538 5536 5534 5532 5530 5528 5527 5525 5524